Year,Month,Day,Hour,Minute,Value (Times are PST for temperature in C)
2021,04,26,00,00,6.90
2021,04,26,00,01,6.90
2021,04,26,00,02,6.90
2021,04,26,00,03,6.90
2021,04,26,00,04,6.90
2021,04,26,00,05,6.90
2021,04,26,00,06,6.90
2021,04,26,00,07,6.90
2021,04,26,00,08,6.90
2021,04,26,00,09,6.90
2021,04,26,00,10,6.90
2021,04,26,00,11,6.90
2021,04,26,00,12,6.90
2021,04,26,00,13,6.90
2021,04,26,00,14,6.90
2021,04,26,00,15,6.90
2021,04,26,00,16,6.90
2021,04,26,00,17,6.90
2021,04,26,00,18,6.90
2021,04,26,00,19,6.90
2021,04,26,00,20,6.90
2021,04,26,00,21,6.90
2021,04,26,00,22,7.00
2021,04,26,00,23,7.00
2021,04,26,00,24,7.10
2021,04,26,00,25,7.10
2021,04,26,00,26,7.10
2021,04,26,00,27,7.10
2021,04,26,00,28,7.10
2021,04,26,00,29,7.10
2021,04,26,00,30,7.10
2021,04,26,00,31,7.10
2021,04,26,00,32,7.10
2021,04,26,00,33,7.10
2021,04,26,00,34,7.10
2021,04,26,00,35,7.10
2021,04,26,00,36,7.10
2021,04,26,00,37,7.10
2021,04,26,00,38,7.10
2021,04,26,00,39,7.10
2021,04,26,00,40,7.10
2021,04,26,00,41,7.10
2021,04,26,00,42,7.20
2021,04,26,00,43,7.20
2021,04,26,00,44,7.20
2021,04,26,00,45,7.20
2021,04,26,00,46,7.20
2021,04,26,00,47,7.20
2021,04,26,00,48,7.10
2021,04,26,00,49,7.10
2021,04,26,00,50,7.10
2021,04,26,00,51,7.10
2021,04,26,00,52,7.10
2021,04,26,00,53,7.20
2021,04,26,00,54,7.20
2021,04,26,00,55,7.20
2021,04,26,00,56,7.20
2021,04,26,00,57,7.20
2021,04,26,00,58,7.20
2021,04,26,00,59,7.20
2021,04,26,01,00,7.20
2021,04,26,01,01,7.20
2021,04,26,01,02,7.20
2021,04,26,01,03,7.20
2021,04,26,01,04,7.20
2021,04,26,01,05,7.30
2021,04,26,01,06,7.30
2021,04,26,01,07,7.30
2021,04,26,01,08,7.30
2021,04,26,01,09,7.30
2021,04,26,01,10,7.30
2021,04,26,01,11,7.40
2021,04,26,01,12,7.40
2021,04,26,01,13,7.40
2021,04,26,01,14,7.40
2021,04,26,01,15,7.40
2021,04,26,01,16,7.40
2021,04,26,01,17,7.40
2021,04,26,01,18,7.40
2021,04,26,01,19,7.40
2021,04,26,01,20,7.40
2021,04,26,01,21,7.40
2021,04,26,01,22,7.40
2021,04,26,01,23,7.50
2021,04,26,01,24,7.50
2021,04,26,01,25,7.50
2021,04,26,01,26,7.60
2021,04,26,01,27,7.60
2021,04,26,01,28,7.60
2021,04,26,01,29,7.60
2021,04,26,01,30,7.60
2021,04,26,01,31,7.60
2021,04,26,01,32,7.60
2021,04,26,01,33,7.60
2021,04,26,01,34,7.60
2021,04,26,01,35,7.60
2021,04,26,01,36,7.60
2021,04,26,01,37,7.60
2021,04,26,01,38,7.60
2021,04,26,01,39,7.60
2021,04,26,01,40,7.60
2021,04,26,01,41,7.60
2021,04,26,01,42,7.60
2021,04,26,01,43,7.60
2021,04,26,01,44,7.60
2021,04,26,01,45,7.60
2021,04,26,01,46,7.60
2021,04,26,01,47,7.60
2021,04,26,01,48,7.60
2021,04,26,01,49,7.60
2021,04,26,01,50,7.60
2021,04,26,01,51,7.60
2021,04,26,01,52,7.60
2021,04,26,01,53,7.60
2021,04,26,01,54,7.60
2021,04,26,01,55,7.60
2021,04,26,01,56,7.60
2021,04,26,01,57,7.60
2021,04,26,01,58,7.60
2021,04,26,01,59,7.60
2021,04,26,02,00,7.60
2021,04,26,02,01,7.70
2021,04,26,02,02,7.70
2021,04,26,02,03,7.70
2021,04,26,02,04,7.70
2021,04,26,02,05,7.70
2021,04,26,02,06,7.70
2021,04,26,02,07,7.70
2021,04,26,02,08,7.70
2021,04,26,02,09,7.70
2021,04,26,02,10,7.70
2021,04,26,02,11,7.70
2021,04,26,02,12,7.70
2021,04,26,02,13,7.70
2021,04,26,02,14,7.70
2021,04,26,02,15,7.70
2021,04,26,02,16,7.70
2021,04,26,02,17,7.70
2021,04,26,02,18,7.70
2021,04,26,02,19,7.70
2021,04,26,02,20,7.70
2021,04,26,02,21,7.70
2021,04,26,02,22,7.70
2021,04,26,02,23,7.70
2021,04,26,02,24,7.70
2021,04,26,02,25,7.70
2021,04,26,02,26,7.70
2021,04,26,02,27,7.70
2021,04,26,02,28,7.70
2021,04,26,02,29,7.70
2021,04,26,02,30,7.70
2021,04,26,02,31,7.70
2021,04,26,02,32,7.70
2021,04,26,02,33,7.70
2021,04,26,02,34,7.70
2021,04,26,02,35,7.70
2021,04,26,02,36,7.70
2021,04,26,02,37,7.70
2021,04,26,02,38,7.70
2021,04,26,02,39,7.70
2021,04,26,02,40,7.70
2021,04,26,02,41,7.70
2021,04,26,02,42,7.70
2021,04,26,02,43,7.70
2021,04,26,02,44,7.70
2021,04,26,02,45,7.70
2021,04,26,02,46,7.70
2021,04,26,02,47,7.70
2021,04,26,02,48,7.70
2021,04,26,02,49,7.70
2021,04,26,02,50,7.70
2021,04,26,02,51,7.70
2021,04,26,02,52,7.70
2021,04,26,02,53,7.70
2021,04,26,02,54,7.70
2021,04,26,02,55,7.70
2021,04,26,02,56,7.70
2021,04,26,02,57,7.80
2021,04,26,02,58,7.80
2021,04,26,02,59,7.80
2021,04,26,03,00,7.80
2021,04,26,03,01,7.80
2021,04,26,03,02,7.80
2021,04,26,03,03,7.80
2021,04,26,03,04,7.80
2021,04,26,03,05,7.80
2021,04,26,03,06,7.80
2021,04,26,03,07,7.90
2021,04,26,03,08,7.80
2021,04,26,03,09,7.90
2021,04,26,03,10,7.90
2021,04,26,03,11,7.90
2021,04,26,03,12,7.90
2021,04,26,03,13,7.90
2021,04,26,03,14,7.90
2021,04,26,03,15,7.90
2021,04,26,03,16,7.90
2021,04,26,03,17,7.90
2021,04,26,03,18,7.90
2021,04,26,03,19,7.90
2021,04,26,03,20,7.90
2021,04,26,03,21,7.90
2021,04,26,03,22,7.90
2021,04,26,03,23,7.90
2021,04,26,03,24,7.80
2021,04,26,03,25,7.80
2021,04,26,03,26,7.80
2021,04,26,03,27,7.80
2021,04,26,03,28,7.80
2021,04,26,03,29,7.80
2021,04,26,03,30,7.80
2021,04,26,03,31,7.80
2021,04,26,03,32,7.80
2021,04,26,03,33,7.80
2021,04,26,03,34,7.80
2021,04,26,03,35,7.80
2021,04,26,03,36,7.80
2021,04,26,03,37,7.80
2021,04,26,03,38,7.80
2021,04,26,03,39,7.70
2021,04,26,03,40,7.70
2021,04,26,03,41,7.70
2021,04,26,03,42,7.70
2021,04,26,03,43,7.70
2021,04,26,03,44,7.70
2021,04,26,03,45,7.70
2021,04,26,03,46,7.70
2021,04,26,03,47,7.70
2021,04,26,03,48,7.70
2021,04,26,03,49,7.70
2021,04,26,03,50,7.70
2021,04,26,03,51,7.60
2021,04,26,03,52,7.60
2021,04,26,03,53,7.60
2021,04,26,03,54,7.60
2021,04,26,03,55,7.60
2021,04,26,03,56,7.60
2021,04,26,03,57,7.60
2021,04,26,03,58,7.60
2021,04,26,03,59,7.60
2021,04,26,04,00,7.60
2021,04,26,04,01,7.60
2021,04,26,04,02,7.60
2021,04,26,04,03,7.60
2021,04,26,04,04,7.60
2021,04,26,04,05,7.60
2021,04,26,04,06,7.60
2021,04,26,04,07,7.60
2021,04,26,04,08,7.60
2021,04,26,04,09,7.60
2021,04,26,04,10,7.60
2021,04,26,04,11,7.60
2021,04,26,04,12,7.60
2021,04,26,04,13,7.60
2021,04,26,04,14,7.60
2021,04,26,04,15,7.60
2021,04,26,04,16,7.60
2021,04,26,04,17,7.60
2021,04,26,04,18,7.60
2021,04,26,04,19,7.60
2021,04,26,04,20,7.70
2021,04,26,04,21,7.70
2021,04,26,04,22,7.70
2021,04,26,04,23,7.70
2021,04,26,04,24,7.70
2021,04,26,04,25,7.70
2021,04,26,04,26,7.70
2021,04,26,04,27,7.70
2021,04,26,04,28,7.70
2021,04,26,04,29,7.70
2021,04,26,04,30,7.70
2021,04,26,04,31,7.70
2021,04,26,04,32,7.70
2021,04,26,04,33,7.70
2021,04,26,04,34,7.70
2021,04,26,04,35,7.70
2021,04,26,04,36,7.70
2021,04,26,04,37,7.70
2021,04,26,04,38,7.70
2021,04,26,04,39,7.70
2021,04,26,04,40,7.70
2021,04,26,04,41,7.70
2021,04,26,04,42,7.70
2021,04,26,04,43,7.70
2021,04,26,04,44,7.70
2021,04,26,04,45,7.70
2021,04,26,04,46,7.70
2021,04,26,04,47,7.70
2021,04,26,04,48,7.70
2021,04,26,04,49,7.70
2021,04,26,04,50,7.70
2021,04,26,04,51,7.70
2021,04,26,04,52,7.70
2021,04,26,04,53,7.70
2021,04,26,04,54,7.70
2021,04,26,04,55,7.70
2021,04,26,04,56,7.70
2021,04,26,04,57,7.70
2021,04,26,04,58,7.70
2021,04,26,04,59,7.70
2021,04,26,05,00,7.70
2021,04,26,05,01,7.70
2021,04,26,05,02,7.80
2021,04,26,05,03,7.80
2021,04,26,05,04,7.80
2021,04,26,05,05,7.80
2021,04,26,05,06,7.80
2021,04,26,05,07,7.80
2021,04,26,05,08,7.80
2021,04,26,05,09,7.80
2021,04,26,05,10,7.80
2021,04,26,05,11,7.80
2021,04,26,05,12,7.80
2021,04,26,05,13,7.80
2021,04,26,05,14,7.80
2021,04,26,05,15,7.80
2021,04,26,05,16,7.80
2021,04,26,05,17,7.80
2021,04,26,05,18,7.80
2021,04,26,05,19,7.80
2021,04,26,05,20,7.80
2021,04,26,05,21,7.80
2021,04,26,05,22,7.80
2021,04,26,05,23,7.80
2021,04,26,05,24,7.80
2021,04,26,05,25,7.80
2021,04,26,05,26,7.80
2021,04,26,05,27,7.80
2021,04,26,05,28,7.80
2021,04,26,05,29,7.80
2021,04,26,05,30,7.80
2021,04,26,05,31,7.80
2021,04,26,05,32,7.80
2021,04,26,05,33,7.80
2021,04,26,05,34,7.80
2021,04,26,05,35,7.80
2021,04,26,05,36,7.80
2021,04,26,05,37,7.80
2021,04,26,05,38,7.80
2021,04,26,05,39,7.80
2021,04,26,05,40,7.80
2021,04,26,05,41,7.80
2021,04,26,05,42,7.80
2021,04,26,05,43,7.80
2021,04,26,05,44,7.80
2021,04,26,05,45,7.80
2021,04,26,05,46,7.80
2021,04,26,05,47,7.80
2021,04,26,05,48,7.80
2021,04,26,05,49,7.80
2021,04,26,05,50,7.80
2021,04,26,05,51,7.80
2021,04,26,05,52,7.80
2021,04,26,05,53,7.80
2021,04,26,05,54,7.80
2021,04,26,05,55,7.80
2021,04,26,05,56,7.80
2021,04,26,05,57,7.80
2021,04,26,05,58,7.80
2021,04,26,05,59,7.80
2021,04,26,06,00,7.80
2021,04,26,06,01,7.80
2021,04,26,06,02,7.80
2021,04,26,06,03,7.80
2021,04,26,06,04,7.80
2021,04,26,06,05,7.80
2021,04,26,06,06,7.80
2021,04,26,06,07,7.80
2021,04,26,06,08,7.80
2021,04,26,06,09,7.80
2021,04,26,06,10,7.80
2021,04,26,06,11,7.80
2021,04,26,06,12,7.80
2021,04,26,06,13,7.80
2021,04,26,06,14,7.80
2021,04,26,06,15,7.80
2021,04,26,06,16,7.80
2021,04,26,06,17,7.80
2021,04,26,06,18,7.80
2021,04,26,06,19,7.80
2021,04,26,06,20,7.80
2021,04,26,06,21,7.80
2021,04,26,06,22,7.80
2021,04,26,06,23,7.70
2021,04,26,06,24,7.80
2021,04,26,06,25,7.80
2021,04,26,06,26,7.70
2021,04,26,06,27,7.80
2021,04,26,06,28,7.80
2021,04,26,06,29,7.80
2021,04,26,06,30,7.80
2021,04,26,06,31,7.80
2021,04,26,06,32,7.80
2021,04,26,06,33,7.80
2021,04,26,06,34,7.80
2021,04,26,06,35,7.80
2021,04,26,06,36,7.80
2021,04,26,06,37,7.80
2021,04,26,06,38,7.80
2021,04,26,06,39,7.80
2021,04,26,06,40,7.90
2021,04,26,06,41,7.90
2021,04,26,06,42,7.90
2021,04,26,06,43,7.90
2021,04,26,06,44,7.90
2021,04,26,06,45,7.90
2021,04,26,06,46,7.90
2021,04,26,06,47,7.90
2021,04,26,06,48,7.90
2021,04,26,06,49,7.90
2021,04,26,06,50,7.90
2021,04,26,06,51,8.00
2021,04,26,06,52,8.00
2021,04,26,06,53,8.00
2021,04,26,06,54,8.00
2021,04,26,06,55,8.00
2021,04,26,06,56,8.10
2021,04,26,06,57,8.10
2021,04,26,06,58,8.10
2021,04,26,06,59,8.10
2021,04,26,07,00,8.10
2021,04,26,07,01,8.10
2021,04,26,07,02,8.10
2021,04,26,07,03,8.10
2021,04,26,07,04,8.10
2021,04,26,07,05,8.20
2021,04,26,07,06,8.20
2021,04,26,07,07,8.20
2021,04,26,07,08,8.20
2021,04,26,07,09,8.20
2021,04,26,07,10,8.20
2021,04,26,07,11,8.20
2021,04,26,07,12,8.20
2021,04,26,07,13,8.20
2021,04,26,07,14,8.20
2021,04,26,07,15,8.20
2021,04,26,07,16,8.30
2021,04,26,07,17,8.30
2021,04,26,07,18,8.30
2021,04,26,07,19,8.30
2021,04,26,07,20,8.30
2021,04,26,07,21,8.30
2021,04,26,07,22,8.30
2021,04,26,07,23,8.30
2021,04,26,07,24,8.30
2021,04,26,07,25,8.40
2021,04,26,07,26,8.40
2021,04,26,07,27,8.40
2021,04,26,07,28,8.40
2021,04,26,07,29,8.40
2021,04,26,07,30,8.50
2021,04,26,07,31,8.50
2021,04,26,07,32,8.50
2021,04,26,07,33,8.60
2021,04,26,07,34,8.60
2021,04,26,07,35,8.60
2021,04,26,07,36,8.60
2021,04,26,07,37,8.60
2021,04,26,07,38,8.60
2021,04,26,07,39,8.60
2021,04,26,07,40,8.60
2021,04,26,07,41,8.60
2021,04,26,07,42,8.60
2021,04,26,07,43,8.60
2021,04,26,07,44,8.60
2021,04,26,07,45,8.60
2021,04,26,07,46,8.60
2021,04,26,07,47,8.70
2021,04,26,07,48,8.70
2021,04,26,07,49,8.70
2021,04,26,07,50,8.70
2021,04,26,07,51,8.70
2021,04,26,07,52,8.70
2021,04,26,07,53,8.70
2021,04,26,07,54,8.70
2021,04,26,07,55,8.70
2021,04,26,07,56,8.70
2021,04,26,07,57,8.70
2021,04,26,07,58,8.70
2021,04,26,07,59,8.70
2021,04,26,08,00,8.70
2021,04,26,08,01,8.70
2021,04,26,08,02,8.70
2021,04,26,08,03,8.60
2021,04,26,08,04,8.60
2021,04,26,08,05,8.60
2021,04,26,08,06,8.60
2021,04,26,08,07,8.60
2021,04,26,08,08,8.60
2021,04,26,08,09,8.60
2021,04,26,08,10,8.60
2021,04,26,08,11,8.60
2021,04,26,08,12,8.60
2021,04,26,08,13,8.60
2021,04,26,08,14,8.50
2021,04,26,08,15,8.50
2021,04,26,08,16,8.50
2021,04,26,08,17,8.50
2021,04,26,08,18,8.50
2021,04,26,08,19,8.50
2021,04,26,08,20,8.50
2021,04,26,08,21,8.50
2021,04,26,08,22,8.50
2021,04,26,08,23,8.50
2021,04,26,08,24,8.50
2021,04,26,08,25,8.60
2021,04,26,08,26,8.60
2021,04,26,08,27,8.60
2021,04,26,08,28,8.60
2021,04,26,08,29,8.60
2021,04,26,08,30,8.60
2021,04,26,08,31,8.60
2021,04,26,08,32,8.60
2021,04,26,08,33,8.60
2021,04,26,08,34,8.60
2021,04,26,08,35,8.60
2021,04,26,08,36,8.60
2021,04,26,08,37,8.60
2021,04,26,08,38,8.60
2021,04,26,08,39,8.60
2021,04,26,08,40,8.60
2021,04,26,08,41,8.70
2021,04,26,08,42,8.70
2021,04,26,08,43,8.70
2021,04,26,08,44,8.70
2021,04,26,08,45,8.70
2021,04,26,08,46,8.70
2021,04,26,08,47,8.70
2021,04,26,08,48,8.70
2021,04,26,08,49,8.80
2021,04,26,08,50,8.80
2021,04,26,08,51,8.80
2021,04,26,08,52,8.80
2021,04,26,08,53,8.90
2021,04,26,08,54,8.90
2021,04,26,08,55,8.90
2021,04,26,08,56,8.90
2021,04,26,08,57,8.90
2021,04,26,08,58,9.00
2021,04,26,08,59,9.00
2021,04,26,09,00,9.00
2021,04,26,09,01,9.10
2021,04,26,09,02,9.10
2021,04,26,09,03,9.10
2021,04,26,09,04,9.20
2021,04,26,09,05,9.20
2021,04,26,09,06,9.30
2021,04,26,09,07,9.30
2021,04,26,09,08,9.30
2021,04,26,09,09,9.30
2021,04,26,09,10,9.40
2021,04,26,09,11,9.40
2021,04,26,09,12,9.40
2021,04,26,09,13,9.50
2021,04,26,09,14,9.50
2021,04,26,09,15,9.60
2021,04,26,09,16,9.60
2021,04,26,09,17,9.70
2021,04,26,09,18,9.70
2021,04,26,09,19,9.70
2021,04,26,09,20,9.80
2021,04,26,09,21,9.80
2021,04,26,09,22,9.80
2021,04,26,09,23,9.80
2021,04,26,09,24,9.80
2021,04,26,09,25,9.80
2021,04,26,09,26,9.90
2021,04,26,09,27,9.90
2021,04,26,09,28,9.90
2021,04,26,09,29,9.90
2021,04,26,09,30,10.00
2021,04,26,09,31,10.00
2021,04,26,09,32,10.00
2021,04,26,09,33,10.00
2021,04,26,09,34,10.00
2021,04,26,09,35,10.00
2021,04,26,09,36,10.00
2021,04,26,09,37,10.00
2021,04,26,09,38,10.00
2021,04,26,09,39,10.00
2021,04,26,09,40,10.00
2021,04,26,09,41,10.00
2021,04,26,09,42,10.10
2021,04,26,09,43,10.10
2021,04,26,09,44,10.20
2021,04,26,09,45,10.20
2021,04,26,09,46,10.20
2021,04,26,09,47,10.20
2021,04,26,09,48,10.20
2021,04,26,09,49,10.20
2021,04,26,09,50,10.20
2021,04,26,09,51,10.20
2021,04,26,09,52,10.20
2021,04,26,09,53,10.20
2021,04,26,09,54,10.20
2021,04,26,09,55,10.20
2021,04,26,09,56,10.20
2021,04,26,09,57,10.20
2021,04,26,09,58,10.20
2021,04,26,09,59,10.20
2021,04,26,10,00,10.20
2021,04,26,10,01,10.20
2021,04,26,10,02,10.20
2021,04,26,10,03,10.20
2021,04,26,10,04,10.20
2021,04,26,10,05,10.20
2021,04,26,10,06,10.20
2021,04,26,10,07,10.30
2021,04,26,10,08,10.30
2021,04,26,10,09,10.30
2021,04,26,10,10,10.40
2021,04,26,10,11,10.40
2021,04,26,10,12,10.50
2021,04,26,10,13,10.50
2021,04,26,10,14,10.60
2021,04,26,10,15,10.70
2021,04,26,10,16,10.70
2021,04,26,10,17,10.80
2021,04,26,10,18,10.80
2021,04,26,10,19,10.90
2021,04,26,10,20,10.90
2021,04,26,10,21,11.00
2021,04,26,10,22,11.10
2021,04,26,10,23,11.10
2021,04,26,10,24,11.10
2021,04,26,10,25,11.20
2021,04,26,10,26,11.20
2021,04,26,10,27,11.30
2021,04,26,10,28,11.30
2021,04,26,10,29,11.40
2021,04,26,10,30,11.40
2021,04,26,10,31,11.40
2021,04,26,10,32,11.40
2021,04,26,10,33,11.40
2021,04,26,10,34,11.40
2021,04,26,10,35,11.50
2021,04,26,10,36,11.50
2021,04,26,10,37,11.50
2021,04,26,10,38,11.60
2021,04,26,10,39,11.60
2021,04,26,10,40,11.70
2021,04,26,10,41,11.70
2021,04,26,10,42,11.70
2021,04,26,10,43,11.70
2021,04,26,10,44,11.80
2021,04,26,10,45,11.80
2021,04,26,10,46,11.80
2021,04,26,10,47,11.80
2021,04,26,10,48,11.90
2021,04,26,10,49,12.00
2021,04,26,10,50,12.10
2021,04,26,10,51,12.20
2021,04,26,10,52,12.30
2021,04,26,10,53,12.40
2021,04,26,10,54,12.60
2021,04,26,10,55,12.80
2021,04,26,10,56,13.00
2021,04,26,10,57,13.10
2021,04,26,10,58,13.20
2021,04,26,10,59,13.20
2021,04,26,11,00,13.20
2021,04,26,11,01,13.10
2021,04,26,11,02,13.10
2021,04,26,11,03,13.00
2021,04,26,11,04,12.90
2021,04,26,11,05,12.90
2021,04,26,11,06,12.90
2021,04,26,11,07,12.90
2021,04,26,11,08,12.90
2021,04,26,11,09,12.80
2021,04,26,11,10,12.80
2021,04,26,11,11,12.80
2021,04,26,11,12,12.80
2021,04,26,11,13,12.80
2021,04,26,11,14,12.80
2021,04,26,11,15,12.70
2021,04,26,11,16,12.70
2021,04,26,11,17,12.70
2021,04,26,11,18,12.60
2021,04,26,11,19,12.50
2021,04,26,11,20,12.50
2021,04,26,11,21,12.40
2021,04,26,11,22,12.40
2021,04,26,11,23,12.40
2021,04,26,11,24,12.40
2021,04,26,11,25,12.30
2021,04,26,11,26,12.20
2021,04,26,11,27,12.20
2021,04,26,11,28,12.20
2021,04,26,11,29,12.10
2021,04,26,11,30,12.10
2021,04,26,11,31,12.10
2021,04,26,11,32,12.10
2021,04,26,11,33,12.10
2021,04,26,11,34,12.00
2021,04,26,11,35,12.00
2021,04,26,11,36,12.00
2021,04,26,11,37,12.00
2021,04,26,11,38,12.00
2021,04,26,11,39,12.10
2021,04,26,11,40,12.10
2021,04,26,11,41,12.20
2021,04,26,11,42,12.30
2021,04,26,11,43,12.30
2021,04,26,11,44,12.30
2021,04,26,11,45,12.30
2021,04,26,11,46,12.40
2021,04,26,11,47,12.40
2021,04,26,11,48,12.50
2021,04,26,11,49,12.50
2021,04,26,11,50,12.60
2021,04,26,11,51,12.60
2021,04,26,11,52,12.60
2021,04,26,11,53,12.60
2021,04,26,11,54,12.60
2021,04,26,11,55,12.60
2021,04,26,11,56,12.60
2021,04,26,11,57,12.60
2021,04,26,11,58,12.60
2021,04,26,11,59,12.60
2021,04,26,12,00,12.60
2021,04,26,12,01,12.60
2021,04,26,12,02,12.60
2021,04,26,12,03,12.60
2021,04,26,12,04,12.60
2021,04,26,12,05,12.60
2021,04,26,12,06,12.50
2021,04,26,12,07,12.50
2021,04,26,12,08,12.50
2021,04,26,12,09,12.40
2021,04,26,12,10,12.30
2021,04,26,12,11,12.30
2021,04,26,12,12,12.30
2021,04,26,12,13,12.20
2021,04,26,12,14,12.20
2021,04,26,12,15,12.20
2021,04,26,12,16,12.10
2021,04,26,12,17,12.10
2021,04,26,12,18,12.10
2021,04,26,12,19,12.10
2021,04,26,12,20,12.10
2021,04,26,12,21,12.20
2021,04,26,12,22,12.20
2021,04,26,12,23,12.20
2021,04,26,12,24,12.20
2021,04,26,12,25,12.30
2021,04,26,12,26,12.30
2021,04,26,12,27,12.30
2021,04,26,12,28,12.30
2021,04,26,12,29,12.40
2021,04,26,12,30,12.40
2021,04,26,12,31,12.40
2021,04,26,12,32,12.40
2021,04,26,12,33,12.50
2021,04,26,12,34,12.50
2021,04,26,12,35,12.60
2021,04,26,12,36,12.60
2021,04,26,12,37,12.60
2021,04,26,12,38,12.70
2021,04,26,12,39,12.70
2021,04,26,12,40,12.90
2021,04,26,12,41,13.00
2021,04,26,12,42,13.10
2021,04,26,12,43,13.10
2021,04,26,12,44,13.20
2021,04,26,12,45,13.20
2021,04,26,12,46,13.30
2021,04,26,12,47,13.30
2021,04,26,12,48,13.30
2021,04,26,12,49,13.30
2021,04,26,12,50,13.30
2021,04,26,12,51,13.30
2021,04,26,12,52,13.30
2021,04,26,12,53,13.20
2021,04,26,12,54,13.20
2021,04,26,12,55,13.20
2021,04,26,12,56,13.20
2021,04,26,12,57,13.30
2021,04,26,12,58,13.40
2021,04,26,12,59,13.50
2021,04,26,13,00,13.60
2021,04,26,13,01,13.60
2021,04,26,13,02,13.50
2021,04,26,13,03,13.50
2021,04,26,13,04,13.40
2021,04,26,13,05,13.30
2021,04,26,13,06,13.30
2021,04,26,13,07,13.30
2021,04,26,13,08,13.30
2021,04,26,13,09,13.20
2021,04,26,13,10,13.20
2021,04,26,13,11,13.20
2021,04,26,13,12,13.30
2021,04,26,13,13,13.40
2021,04,26,13,14,13.40
2021,04,26,13,15,13.30
2021,04,26,13,16,13.30
2021,04,26,13,17,13.30
2021,04,26,13,18,13.30
2021,04,26,13,19,13.20
2021,04,26,13,20,13.20
2021,04,26,13,21,13.20
2021,04,26,13,22,13.20
2021,04,26,13,23,13.20
2021,04,26,13,24,13.30
2021,04,26,13,25,13.40
2021,04,26,13,26,13.50
2021,04,26,13,27,13.50
2021,04,26,13,28,13.50
2021,04,26,13,29,13.50
2021,04,26,13,30,13.50
2021,04,26,13,31,13.50
2021,04,26,13,32,13.60
2021,04,26,13,33,13.60
2021,04,26,13,34,13.60
2021,04,26,13,35,13.70
2021,04,26,13,36,13.70
2021,04,26,13,37,13.70
2021,04,26,13,38,13.70
2021,04,26,13,39,13.70
2021,04,26,13,40,13.70
2021,04,26,13,41,13.70
2021,04,26,13,42,13.70
2021,04,26,13,43,13.70
2021,04,26,13,44,13.70
2021,04,26,13,45,13.80
2021,04,26,13,46,13.80
2021,04,26,13,47,13.80
2021,04,26,13,48,13.80
2021,04,26,13,49,13.80
2021,04,26,13,50,13.80
2021,04,26,13,51,13.80
2021,04,26,13,52,13.80
2021,04,26,13,53,13.80
2021,04,26,13,54,13.80
2021,04,26,13,55,13.80
2021,04,26,13,56,13.80
2021,04,26,13,57,13.80
2021,04,26,13,58,13.70
2021,04,26,13,59,13.70
2021,04,26,14,00,13.70
2021,04,26,14,01,13.70
2021,04,26,14,02,13.60
2021,04,26,14,03,13.50
2021,04,26,14,04,13.50
2021,04,26,14,05,13.40
2021,04,26,14,06,13.40
2021,04,26,14,07,13.40
2021,04,26,14,08,13.50
2021,04,26,14,09,13.40
2021,04,26,14,10,13.40
2021,04,26,14,11,13.30
2021,04,26,14,12,13.30
2021,04,26,14,13,13.20
2021,04,26,14,14,13.10
2021,04,26,14,15,13.10
2021,04,26,14,16,13.00
2021,04,26,14,17,13.00
2021,04,26,14,18,12.90
2021,04,26,14,19,12.90
2021,04,26,14,20,12.90
2021,04,26,14,21,12.80
2021,04,26,14,22,12.80
2021,04,26,14,23,12.90
2021,04,26,14,24,12.90
2021,04,26,14,25,13.00
2021,04,26,14,26,13.10
2021,04,26,14,27,13.10
2021,04,26,14,28,13.20
2021,04,26,14,29,13.20
2021,04,26,14,30,13.20
2021,04,26,14,31,13.30
2021,04,26,14,32,13.40
2021,04,26,14,33,13.50
2021,04,26,14,34,13.50
2021,04,26,14,35,13.60
2021,04,26,14,36,13.60
2021,04,26,14,37,13.70
2021,04,26,14,38,13.70
2021,04,26,14,39,13.80
2021,04,26,14,40,13.90
2021,04,26,14,41,14.00
2021,04,26,14,42,14.10
2021,04,26,14,43,14.10
2021,04,26,14,44,14.20
2021,04,26,14,45,14.20
2021,04,26,14,46,14.20
2021,04,26,14,47,14.30
2021,04,26,14,48,14.30
2021,04,26,14,49,14.30
2021,04,26,14,50,14.20
2021,04,26,14,51,14.10
2021,04,26,14,52,14.10
2021,04,26,14,53,14.10
2021,04,26,14,54,14.10
2021,04,26,14,55,14.10
2021,04,26,14,56,14.10
2021,04,26,14,57,14.20
2021,04,26,14,58,14.20
2021,04,26,14,59,14.30
2021,04,26,15,00,14.30
2021,04,26,15,01,14.30
2021,04,26,15,02,14.30
2021,04,26,15,03,14.30
2021,04,26,15,04,14.30
2021,04,26,15,05,14.30
2021,04,26,15,06,14.30
2021,04,26,15,07,14.30
2021,04,26,15,08,14.30
2021,04,26,15,09,14.40
2021,04,26,15,10,14.40
2021,04,26,15,11,14.50
2021,04,26,15,12,14.50
2021,04,26,15,13,14.40
2021,04,26,15,14,14.40
2021,04,26,15,15,14.40
2021,04,26,15,16,14.30
2021,04,26,15,17,14.30
2021,04,26,15,18,14.20
2021,04,26,15,19,14.20
2021,04,26,15,20,14.10
2021,04,26,15,21,14.10
2021,04,26,15,22,14.10
2021,04,26,15,23,14.10
2021,04,26,15,24,14.00
2021,04,26,15,25,14.00
2021,04,26,15,26,13.90
2021,04,26,15,27,13.80
2021,04,26,15,28,13.80
2021,04,26,15,29,13.80
2021,04,26,15,30,13.80
2021,04,26,15,31,13.80
2021,04,26,15,32,13.80
2021,04,26,15,33,13.80
2021,04,26,15,34,13.80
2021,04,26,15,35,13.80
2021,04,26,15,36,13.80
2021,04,26,15,37,13.80
2021,04,26,15,38,13.70
2021,04,26,15,39,13.70
2021,04,26,15,40,13.70
2021,04,26,15,41,13.80
2021,04,26,15,42,13.90
2021,04,26,15,43,14.00
2021,04,26,15,44,14.00
2021,04,26,15,45,14.10
2021,04,26,15,46,14.10
2021,04,26,15,47,14.10
2021,04,26,15,48,14.10
2021,04,26,15,49,14.10
2021,04,26,15,50,14.20
2021,04,26,15,51,14.20
2021,04,26,15,52,14.20
2021,04,26,15,53,14.30
2021,04,26,15,54,14.30
2021,04,26,15,55,14.40
2021,04,26,15,56,14.50
2021,04,26,15,57,14.50
2021,04,26,15,58,14.50
2021,04,26,15,59,14.50
2021,04,26,16,00,14.40
2021,04,26,16,01,14.50
2021,04,26,16,02,14.50
2021,04,26,16,03,14.40
2021,04,26,16,04,14.40
2021,04,26,16,05,14.30
2021,04,26,16,06,14.30
2021,04,26,16,07,14.30
2021,04,26,16,08,14.30
2021,04,26,16,09,14.30
2021,04,26,16,10,14.30
2021,04,26,16,11,14.20
2021,04,26,16,12,14.20
2021,04,26,16,13,14.20
2021,04,26,16,14,14.20
2021,04,26,16,15,14.20
2021,04,26,16,16,14.30
2021,04,26,16,17,14.30
2021,04,26,16,18,14.30
2021,04,26,16,19,14.40
2021,04,26,16,20,14.40
2021,04,26,16,21,14.50
2021,04,26,16,22,14.60
2021,04,26,16,23,14.60
2021,04,26,16,24,14.60
2021,04,26,16,25,14.70
2021,04,26,16,26,14.80
2021,04,26,16,27,14.90
2021,04,26,16,28,14.90
2021,04,26,16,29,15.00
2021,04,26,16,30,15.10
2021,04,26,16,31,15.10
2021,04,26,16,32,15.10
2021,04,26,16,33,15.10
2021,04,26,16,34,15.10
2021,04,26,16,35,15.10
2021,04,26,16,36,15.10
2021,04,26,16,37,15.10
2021,04,26,16,38,15.10
2021,04,26,16,39,15.10
2021,04,26,16,40,15.10
2021,04,26,16,41,15.10
2021,04,26,16,42,15.00
2021,04,26,16,43,15.00
2021,04,26,16,44,15.00
2021,04,26,16,45,15.10
2021,04,26,16,46,15.10
2021,04,26,16,47,15.00
2021,04,26,16,48,14.90
2021,04,26,16,49,14.90
2021,04,26,16,50,14.80
2021,04,26,16,51,14.80
2021,04,26,16,52,14.80
2021,04,26,16,53,14.80
2021,04,26,16,54,14.80
2021,04,26,16,55,14.70
2021,04,26,16,56,14.70
2021,04,26,16,57,14.70
2021,04,26,16,58,14.70
2021,04,26,16,59,14.70
2021,04,26,17,00,14.80
2021,04,26,17,01,14.80
2021,04,26,17,02,14.90
2021,04,26,17,03,14.90
2021,04,26,17,04,15.00
2021,04,26,17,05,15.10
2021,04,26,17,06,15.20
2021,04,26,17,07,15.40
2021,04,26,17,08,15.50
2021,04,26,17,09,15.50
2021,04,26,17,10,15.60
2021,04,26,17,11,15.60
2021,04,26,17,12,15.70
2021,04,26,17,13,15.60
2021,04,26,17,14,15.60
2021,04,26,17,15,15.50
2021,04,26,17,16,15.40
2021,04,26,17,17,15.20
2021,04,26,17,18,15.20
2021,04,26,17,19,15.10
2021,04,26,17,20,15.00
2021,04,26,17,21,14.90
2021,04,26,17,22,14.80
2021,04,26,17,23,14.70
2021,04,26,17,24,14.60
2021,04,26,17,25,14.60
2021,04,26,17,26,14.50
2021,04,26,17,27,14.50
2021,04,26,17,28,14.50
2021,04,26,17,29,14.50
2021,04,26,17,30,14.60
2021,04,26,17,31,14.60
2021,04,26,17,32,14.70
2021,04,26,17,33,14.80
2021,04,26,17,34,14.80
2021,04,26,17,35,14.90
2021,04,26,17,36,14.90
2021,04,26,17,37,15.00
2021,04,26,17,38,15.00
2021,04,26,17,39,15.00
2021,04,26,17,40,15.00
2021,04,26,17,41,15.00
2021,04,26,17,42,15.00
2021,04,26,17,43,14.90
2021,04,26,17,44,14.90